Newport Airport, OR

5:30 PM PST on December 16, 2017 (GMT -0800)
Newport Municipal

Weather History for KONP - February, 2012

Change the Weather History Date:

Saturday, February 4, 2012

  Actual Average Record
Temperature  
Mean Temperature 50 °F -  
Max Temperature 62 °F 50 °F 62 °F (2009)
Min Temperature 37 °F 38 °F 32 °F (2014)
Degree Days  
Heating Degree Days 16    
Moisture  
Dew Point 34 °F    
Average Humidity 60    
Maximum Humidity 93    
Minimum Humidity 30    
Precipitation  
Precipitation 0.00 in - - ()
Sea Level Pressure  
Sea Level Pressure 30.10 in    
Wind  
Wind Speed 8 mph (East)    
Max Wind Speed 18 mph    
Max Gust Speed 28 mph    
Visibility 10 miles    
Events      
Averages and records for this station are not official NWS values.
T = Trace of Precipitation, MM = Missing Value Source: NWS Daily Summary

Daily Weather History Graph

Daily Weather History Graph

Search for Another Location

Airport or City:

Trip Planner

Search our weather history database for the weather conditions in past years. The results will help you decide how hot, cold, wet, or windy it might be!

Date:

Astronomy

Feb. 04, 2012 Rise Set
Actual Time 7:31 AM PST 5:28 PM PST
Civil Twilight 7:01 AM PST 5:59 PM PST
Nautical Twilight 6:26 AM PST 6:34 PM PST
Astronomical Twilight 5:52 AM PST 7:08 PM PST
Moon 2:27 PM PST (2/4) 5:06 AM PST (2/4)
Length of Visible Light 10h 58m
Length of Day
9h 57m
Waxing Gibbous, 89% of the Moon is Illuminated
Feb 4
Waxing Gibbous
Feb 7
Full
Feb 14
Last Quarter
Feb 21
New
Feb 29
First Quarter

Hourly Weather History & Observations

Time (PST) Temp. Windchill Dew Point Humidity Pressure Visibility Wind Dir Wind Speed Gust Speed Precip Events Conditions
12:15 AM 41.0 °F 38.0 °F 39.2 °F 93% 30.13 in 10.0 mi East 4.6 mph - N/A   Clear
12:35 AM 39.2 °F 35.0 °F 37.4 °F 93% 30.12 in 10.0 mi East 5.8 mph - N/A   Clear
12:55 AM 41.0 °F - 37.4 °F 87% 30.12 in 10.0 mi Calm Calm - N/A   Clear
1:15 AM 37.4 °F - 35.6 °F 93% 30.12 in 10.0 mi Calm Calm - N/A   Clear
1:35 AM 39.2 °F 37.0 °F 35.6 °F 87% 30.12 in 10.0 mi SE 3.5 mph - N/A   Clear
1:55 AM 39.2 °F 37.0 °F 33.8 °F 81% 30.11 in 10.0 mi East 3.5 mph - N/A   Clear
2:15 AM 39.2 °F 35.0 °F 33.8 °F 81% 30.11 in 10.0 mi East 5.8 mph - N/A   Clear
2:35 AM 39.2 °F 32.5 °F 33.8 °F 81% 30.10 in 10.0 mi East 10.4 mph - N/A   Clear
2:55 AM 41.0 °F 33.5 °F 32.0 °F 70% 30.10 in 10.0 mi East 13.8 mph - N/A   Clear
3:15 AM 41.0 °F 33.9 °F 32.0 °F 70% 30.10 in 10.0 mi East 12.7 mph - N/A   Clear
3:35 AM 41.0 °F 33.1 °F 32.0 °F 70% 30.09 in 10.0 mi East 15.0 mph - N/A   Clear
3:55 AM 42.8 °F 35.8 °F 32.0 °F 66% 30.09 in 10.0 mi East 13.8 mph 19.6 mph N/A   Clear
4:15 AM 42.8 °F 37.5 °F 32.0 °F 66% 30.09 in 10.0 mi East 9.2 mph 16.1 mph N/A   Clear
4:35 AM 42.8 °F 36.2 °F 32.0 °F 66% 30.09 in 10.0 mi East 12.7 mph - N/A   Clear
4:55 AM 42.8 °F 36.6 °F 32.0 °F 66% 30.09 in 10.0 mi East 11.5 mph - N/A   Clear
5:15 AM 42.8 °F 37.0 °F 32.0 °F 66% 30.08 in 10.0 mi East 10.4 mph 16.1 mph N/A   Clear
5:35 AM 42.8 °F 35.4 °F 32.0 °F 66% 30.07 in 10.0 mi East 15.0 mph 21.9 mph N/A   Clear
5:55 AM 42.8 °F 35.4 °F 32.0 °F 66% 30.07 in 10.0 mi East 15.0 mph 20.7 mph N/A   Clear
6:15 AM 42.8 °F 34.8 °F 32.0 °F 66% 30.07 in 10.0 mi East 17.3 mph 23.0 mph N/A   Clear
6:35 AM 42.8 °F 34.5 °F 32.0 °F 66% 30.07 in 10.0 mi East 18.4 mph 27.6 mph N/A   Clear
6:55 AM 42.8 °F 34.5 °F 30.2 °F 61% 30.06 in 10.0 mi East 18.4 mph 25.3 mph N/A   Clear
7:15 AM 42.8 °F 35.4 °F 30.2 °F 61% 30.07 in 10.0 mi East 15.0 mph 26.5 mph N/A   Clear
7:35 AM 42.8 °F 35.8 °F 30.2 °F 61% 30.07 in 10.0 mi East 13.8 mph 20.7 mph N/A   Clear
7:55 AM 42.8 °F 37.0 °F 30.2 °F 61% 30.08 in 10.0 mi East 10.4 mph 19.6 mph N/A   Clear
8:15 AM 44.6 °F 37.8 °F 30.2 °F 57% 30.08 in 10.0 mi East 15.0 mph 20.7 mph N/A   Clear
8:35 AM 44.6 °F 37.4 °F 30.2 °F 57% 30.08 in 10.0 mi East 16.1 mph 23.0 mph N/A   Clear
8:55 AM 44.6 °F 37.8 °F 32.0 °F 61% 30.09 in 10.0 mi East 15.0 mph 20.7 mph N/A   Clear
9:15 AM 46.4 °F 40.4 °F 32.0 °F 57% 30.10 in 10.0 mi East 13.8 mph 20.7 mph N/A   Clear
9:35 AM 46.4 °F 39.8 °F 32.0 °F 57% 30.10 in 10.0 mi East 16.1 mph 20.7 mph N/A   Clear
9:55 AM 48.2 °F - 32.0 °F 54% 30.10 in 10.0 mi East 13.8 mph - N/A   Clear
10:15 AM 50.0 °F - 32.0 °F 50% 30.10 in 10.0 mi East 11.5 mph 17.3 mph N/A   Clear
10:35 AM 51.8 °F - 32.0 °F 47% 30.11 in 10.0 mi East 12.7 mph - N/A   Clear
10:55 AM 51.8 °F - 32.0 °F 47% 30.11 in 10.0 mi East 9.2 mph - N/A   Clear
11:15 AM 53.6 °F - 32.0 °F 44% 30.11 in 10.0 mi East 10.4 mph - N/A   Clear
11:35 AM 55.4 °F - 32.0 °F 41% 30.10 in 10.0 mi East 6.9 mph - N/A   Clear
11:55 AM 55.4 °F - 32.0 °F 41% 30.10 in 10.0 mi East 10.4 mph - N/A   Clear
12:15 PM 59.0 °F - 32.0 °F 36% 30.10 in 10.0 mi East 9.2 mph - N/A   Clear
12:35 PM 59.0 °F - 32.0 °F 36% 30.10 in 10.0 mi East 8.1 mph - N/A   Clear
12:55 PM 60.8 °F - 32.0 °F 34% 30.09 in 10.0 mi East 8.1 mph - N/A   Clear
1:15 PM 60.8 °F - 32.0 °F 34% 30.08 in 10.0 mi ESE 6.9 mph - N/A   Clear
1:35 PM 62.6 °F - 32.0 °F 32% 30.08 in 10.0 mi South 8.1 mph - N/A   Clear
1:55 PM 62.6 °F - 30.2 °F 30% 30.08 in 10.0 mi SE 6.9 mph - N/A   Clear
2:15 PM 62.6 °F - 32.0 °F 32% 30.08 in 10.0 mi South 5.8 mph - N/A   Clear
2:35 PM 62.6 °F - 32.0 °F 32% 30.08 in 10.0 mi South 10.4 mph - N/A   Clear
2:55 PM 62.6 °F - 32.0 °F 32% 30.09 in 10.0 mi SSW 9.2 mph - N/A   Clear
3:15 PM 60.8 °F - 32.0 °F 34% 30.09 in 10.0 mi SW 10.4 mph - N/A   Clear
3:35 PM 59.0 °F - 32.0 °F 36% 30.09 in 10.0 mi SSW 9.2 mph - N/A   Clear
3:55 PM 59.0 °F - 33.8 °F 39% 30.09 in 10.0 mi SSW 8.1 mph - N/A   Clear
4:15 PM 59.0 °F - 35.6 °F 42% 30.08 in 10.0 mi SSW 4.6 mph - N/A   Clear
4:35 PM 57.2 °F - 37.4 °F 48% 30.08 in 7.0 mi Calm Calm - N/A   Clear
4:55 PM 53.6 °F - 42.8 °F 67% 30.08 in 2.0 mi ENE 3.5 mph - N/A   Haze
5:15 PM 53.6 °F - 37.4 °F 54% 30.09 in 10.0 mi NNE 3.5 mph - N/A   Clear
5:35 PM 50.0 °F - 41.0 °F 71% 30.09 in 4.0 mi WSW 4.6 mph - N/A   Haze
5:55 PM 48.2 °F - 41.0 °F 76% 30.10 in 3.0 mi Calm Calm - N/A   Haze
6:15 PM 44.6 °F - 37.4 °F 76% 30.10 in 5.0 mi Calm Calm - N/A   Haze
6:35 PM 42.8 °F 40.1 °F 37.4 °F 81% 30.10 in 10.0 mi East 4.6 mph - N/A   Clear
6:55 PM 44.6 °F 40.7 °F 35.6 °F 71% 30.10 in 10.0 mi East 6.9 mph - N/A   Clear
7:15 PM 46.4 °F 42.9 °F 33.8 °F 62% 30.11 in 10.0 mi East 6.9 mph - N/A   Clear
7:35 PM 44.6 °F 43.1 °F 35.6 °F 71% 30.12 in 10.0 mi SSW 3.5 mph - N/A   Clear
7:55 PM 46.4 °F 42.9 °F 35.6 °F 66% 30.12 in 10.0 mi East 6.9 mph - N/A   Clear
8:15 PM 46.4 °F 43.5 °F 35.6 °F 66% 30.12 in 10.0 mi East 5.8 mph - N/A   Clear
8:35 PM 46.4 °F 41.9 °F 35.6 °F 66% 30.12 in 10.0 mi East 9.2 mph - N/A   Clear
8:55 PM 46.4 °F 42.4 °F 35.6 °F 66% 30.12 in 10.0 mi East 8.1 mph - N/A   Clear
9:15 PM 46.4 °F 42.4 °F 33.8 °F 62% 30.13 in 10.0 mi East 8.1 mph - N/A   Clear
9:35 PM 46.4 °F 42.4 °F 33.8 °F 62% 30.13 in 10.0 mi East 8.1 mph - N/A   Clear
9:55 PM 46.4 °F 41.5 °F 33.8 °F 62% 30.13 in 10.0 mi East 10.4 mph - N/A   Clear
10:15 PM 46.4 °F 42.4 °F 33.8 °F 62% 30.13 in 10.0 mi East 8.1 mph - N/A   Clear
10:35 PM 44.6 °F 39.2 °F 33.8 °F 66% 30.13 in 10.0 mi East 10.4 mph - N/A   Clear
10:55 PM 46.4 °F 42.4 °F 33.8 °F 62% 30.14 in 10.0 mi East 8.1 mph - N/A   Clear
11:15 PM 44.6 °F - 33.8 °F 66% 30.14 in 10.0 mi Calm Calm - N/A   Clear
11:35 PM 42.8 °F 41.1 °F 33.8 °F 70% 30.14 in 10.0 mi ESE 3.5 mph - N/A   Clear
11:55 PM 42.8 °F 39.3 °F 33.8 °F 70% 30.15 in 10.0 mi East 5.8 mph - N/A   Clear